Regional Weather Roundup
Issued by NWS

Home | Current Version | Previous Version | Graphics & Text | Print | Product List | Glossary On
Versions: 1 2 3 4 5 6 7 8 9 10 11 12 13 14 15 16 17 18 19 20 21 22 23 24 25 26 27 28 29 30 31 32 33 34 35 36 37 38 39 40 41 42 43 44 45 46 47 48 49 50
000
ASUS43 KMPX 101410
RWRMN
WEATHER ROUNDUP FOR MINNESOTA
NATIONAL WEATHER SERVICE TWIN CITIES/CHANHASSEN MN
800 AM CST WED FEB 10 2016


NOTE: "FAIR" INDICATES FEW OR NO CLOUDS BELOW 12,000 FEET WITH NO
SIGNIFICANT WEATHER AND/OR OBSTRUCTIONS TO VISIBILITY. N/A MEANS
CURRENT SKY AND/OR WEATHER CONDITIONS ARE NOT AVAILABLE.

MNZ060>063-068>070-101500-
   Twin Cities Metro

CITY           SKY/WX    TMP DP  RH WIND       PRES   REMARKS
TWIN CITIES    MOCLDY     4  -5  66 N6        30.13R WCI  -7
ST PAUL        MOCLDY     3  -5  69 NW6       30.15R WCI  -8
CRYSTAL        PTCLDY     3  -6  66 N7        30.12R WCI  -9
BLAINE         MOCLDY     3  -2  78 N6        30.11S WCI  -8
LAKEVILLE      CLOUDY     3  -2  78 N3        30.11R
EDEN PRAIRIE   CLOUDY     5  -4  66 N6        30.11R WCI  -6
SOUTH ST PAUL  PTCLDY     4  -4  68 NW6       30.13R WCI  -7
LAKE ELMO      FAIR       1  -4  78 NW3       30.13R
$$
MNZ001>005-007-008-013>017-022>024-027-028-101500-
   Northwest Minnesota

CITY           SKY/WX    TMP DP  RH WIND       PRES   REMARKS
BEMIDJI        CLOUDY    -6 -10  82 E7        30.08F WCI -20
HALLOCK        CLOUDY     1  -6  71 E7        30.15S WCI -11
ROSEAU         CLOUDY   -15 -18  84 NE5       30.16R WCI -27
WARROAD        PTCLDY   -15 -20  76 CALM      30.15S
THIEF RVR FALL CLOUDY     0  -6  78 E7        30.12S WCI -13
CROOKSTON      PTCLDY     3  -2  78 SE7       30.14S WCI  -9
FOSSTON          N/A     -2  -8  78 E3        30.10S
DETROIT LAKES  CLOUDY     3  -2  78 SE7       30.07F WCI  -9
MOORHEAD       MIX PCPN   7   1  78 SE7       30.10F WCI  -5
PARK RAPIDS    CLOUDY    -2  -8  76 CALM      30.07R
MAHNOMEN       CLOUDY     1  -6  75 E6        30.09S WCI -11
$$
MNZ006-009>011-018-025>026-101500-
   North Central Minnesota

CITY           SKY/WX    TMP DP  RH WIND       PRES   REMARKS
BAUDETTE       CLOUDY   -23 -30  70 CALM      30.13S
FLAG ISLAND    PTCLDY   -18 -24  76 CALM      30.16S
INTL FALLS     CLOUDY   -16 -21  78 NE6       30.12F WCI -31
WASKISH        CLOUDY   -18 -24  76 CALM      30.12S
LONGVILLE      CLOUDY    -8 -11  84 CALM      30.10S
GRAND RAPIDS   CLOUDY   -13 -18  77 N3        30.08R
CRANE LAKE     CLOUDY   -27 -33  75 CALM      30.16R
ORR            CLOUDY   -22 -29  69 CALM      30.07S
COOK           CLOUDY   -27 -33  75 CALM      30.09S
WALKER         PTSUNNY   -6 -11  79 NE3       30.09S
$$
MNZ012-019>021-037-101500-
   Northeast Minnesota

CITY           SKY/WX    TMP DP  RH WIND       PRES   REMARKS
DULUTH         CLOUDY   -10 -16  74 N10       30.04R WCI -29
ELY            CLOUDY   -18 -24  76 CALM      30.08R
HIBBING        CLOUDY   -18 -22  82 CALM      30.07S
EVELETH        PTCLDY    -9 -15  77 N5        30.08R WCI -21
DULUTH HARBOR  CLOUDY     0  -6  78 N12       30.14S WCI -18
TWO HARBORS    CLEAR     -6 -13  71 NE5       30.05S WCI -17
SILVER BAY     CLEAR     -8 -15  71 CALM      30.06S
GRAND MARAIS     N/A     -8 -18  61 N21G35    30.10S WCI -33
G MARAIS ARPRT CLOUDY   -17 -24  70 N6        29.98S WCI -31
$$
MNZ029>031-032-039>041-046>048-054>057-064-101500-
   West Central Minnesota

CITY           SKY/WX    TMP DP  RH WIND       PRES   REMARKS
FERGUS FALLS   LGT SNOW   5   0  78 E5        30.12F WCI  -4
WHEATON        LGT SNOW   9   7  92 E12       30.09F WCI  -6
MORRIS         LGT SNOW   7   1  78 E8        30.07S WCI  -6
ALEXANDRIA     CLOUDY     3  -5  69 E9        30.07S WCI -12
WADENA         CLOUDY     0  -6  78 CALM      30.08S
GLENWOOD       CLOUDY     3  -2  78 E9        30.07F WCI -11
APPLETON       LGT SNOW   9   3  78 SE8       30.09S WCI  -4
BENSON         MIX PCPN   7   1  78 CALM      30.09R
ORTONVILLE     LGT SNOW   7   1  78 SE8       30.06F WCI  -6
MADISON        LGT SNOW   9   5  85 E10       30.07F WCI  -6
WILLMAR        LGT SNOW   7   1  78 E5        30.09S WCI  -2
$$
MNZ033>034-036-042>043-049>051-058-059-101500-
   Central Minnesota

CITY           SKY/WX    TMP DP  RH WIND       PRES   REMARKS
ST CLOUD       CLOUDY     2  -6  69 N3        30.12R
SAUK CENTRE    FAIR       2  -5  74 NE5       30.09F WCI  -8
PAYNESVILLE    CLOUDY     4  -4  71 NE5       30.10R WCI  -6
AITKIN         CLOUDY    -6 -13  71 NW3       30.10R
PINE RIVER     CLOUDY    -4  -9  77 NE3       30.13R
BRAINERD       CLOUDY    -3  -9  75 NE8       30.10S WCI -18
STAPLES        CLOUDY    -2  -8  78 CALM      30.09S
LONG PRAIRIE   CLOUDY     1  -6  71 CALM      30.09S
LITTLE FALLS   CLOUDY     0  -8  71 CALM      30.11S
LITCHFIELD     CLOUDY     5  -2  72 CALM      30.10S
BUFFALO        CLOUDY     3  -4  71 CALM      30.13S
MAPLE LAKE     CLOUDY     4  -2  75 N5        30.12S WCI  -5
$$
MNZ037-044-045-052-053-101500-
   East Central Minnesota

CITY           SKY/WX    TMP DP  RH WIND       PRES   REMARKS
PRINCETON      PTCLDY     1  -6  71 N5        30.11R WCI  -8
MORA           PTCLDY    -2  -8  78 N6        30.13R WCI -14
CAMBRIDGE      CLOUDY     1  -8  66 CALM      30.11R
RUSH CITY      CLOUDY    -2  -8  77 N5        30.13R WCI -13
MOOSE LAKE     PTCLDY    -8 -13  77 N5        30.09R WCI -19
HINCKLEY       FAIR      -4  -8  84 N5        30.11R WCI -15
CLOQUET        CLOUDY   -11 -17  77 CALM      30.06S
MCGREGOR       CLOUDY    -8 -11  84 W5        30.10R WCI -19
$$
MNZ071>073-080-081-089-090-097-098-101500-
   Southwest Minnesota

CITY           SKY/WX    TMP DP  RH WIND       PRES   REMARKS
MONTEVIDEO     LGT SNOW   7   3  85 SE7       30.10S WCI  -5
GRANITE FALLS  LGT SNOW   9   5  82 E6        30.10S WCI   0
CANBY          LGT SNOW  12   9  88 SE12      30.06S VSB 1   WCI  -2
MARSHALL       LGT SNOW   9   3  78 E12       30.06S FOG     WCI  -6
REDWOOD FALLS  LGT SNOW   7   2  80 E5        30.09S WCI  -2
OLIVIA         LGT SNOW  10   3  72 E6        30.08F WCI   1
PIPESTONE      LGT SNOW  16   7  67 SE10      29.97S WCI   3
WINDOM         LGT SNOW   7   3  85 CALM      30.04S
WORTHINGTON    CLOUDY    10   7  85 E13       30.01F WCI  -5
JACKSON        LGT SNOW   9   3  78 E8        30.04S VSB 3/4 WCI  -4
TRACY          LGT SNOW   9   6  87 E8        30.05S WCI  -3
SLAYTON        LGT SNOW   9   8  93 E9        30.01S WCI  -4
$$
MNZ065>067-074>077-082>085-091>093-101500-
   South Central Minnesota

CITY           SKY/WX    TMP DP  RH WIND       PRES   REMARKS
MANKATO        CLOUDY     5  -2  72 NE5       30.09F WCI  -4
NEW ULM        CLOUDY     7  -2  66 CALM      30.10R
ST JAMES       FLURRIES   7   3  85 NE5       30.10R WCI  -2
FAIRMONT       CLOUDY     7   0  72 E3        30.06S
GLENCOE        CLOUDY     6  -1  73 NE3       30.11R
FARIBAULT        N/A      1  -4  78 CALM      30.11R
OWATONNA       CLOUDY     1  -4  78 CALM      30.09R
WASECA         CLOUDY     5   0  78 N5        30.10S WCI  -4
ALBERT LEA     CLOUDY     5   0  78 CALM      30.06F
$$
MNZ078>079-086>088-094>096-101500-
   Southeast Minnesota

CITY           SKY/WX    TMP DP  RH WIND       PRES   REMARKS
ROCHESTER      CLOUDY     1  -5  75 NW6       30.06S WCI -10
RED WING       MOCLDY     1  -6  71 CALM      30.12R
STANTON        MOCLDY     2  -3  79 CALM      30.10S
DODGE CENTER   CLOUDY     1  -4  78 N3        30.06R
WINONA         CLOUDY     3  -4  72 CALM      30.12S
AUSTIN         CLOUDY     3  -2  78 NW3       30.07S
PRESTON        CLOUDY    -1  -7  75 N6        30.06S WCI -12
$$
ABBREVIATIONS USED IN REMARKS
   TC - TEMPERATURES IN CELSIUS
  WCI - WIND CHILL INDEX
   HX - HEAT INDEX
  VSB - VISIBILITY
$$



USA.gov is the U.S. government's official web portal to all federal, state and local government web resources and services.